Retour au catalogue

STARLINK-35909

ActifCommunicationsVLEO
NORAD 66496·PAYLOAD·🇺🇸 United States

Lancé Nov 15, 2025 depuis Cape Canaveral Space Force Station

Loading…

Prochains Passages (prochaines 24 heures)

TLE

FraisSource: CelesTrak SupGP

Époque: Sep 14, 2026, 22:46 UTC

1 66496C 25263M   26257.94909722 -.00017588  00000+0 -63710-3 0  2570
2 66496  43.0027   2.0693 0001688 268.6583   5.0467 15.27583262    14

Suivez STARLINK-35909 en temps réel avec AllMySat

Download on the App Store